Regional Weather Roundup
Issued by NWS

Home | Current Version | Previous Version | Graphics & Text | Print | Product List | Glossary On
Versions: 1 2 3 4 5 6 7 8 9 10 11 12 13 14 15 16 17 18 19 20 21 22 23 24 25 26 27 28 29 30 31 32 33 34 35 36 37 38 39 40 41 42 43 44 45 46 47 48 49 50
000
ASUS43 KDMX 250001
RWRIA

WEATHER ROUNDUP FOR IOWA
NATIONAL WEATHER SERVICE DES MOINES IA
700 PM CDT WED MAY 24 2017

NOTE: "FAIR" INDICATES FEW OR NO CLOUDS BELOW 12,000 FEET WITH NO
SIGNIFICANT WEATHER AND/OR OBSTRUCTIONS TO VISIBILITY.

* - THESE STATIONS ARE NOT NWS STATIONS...THUS NOT UNDER NWS
QUALITY CONTROL.  THEY ALSO DO NOT REPORT WEATHER SUCH
AS PRECIPITATION OR FOG.

IAZ001>003-012>014-020>022-031>034-043>046-250100-
   NORTHWEST IOWA

CITY           SKY/WX    TMP DP  RH WIND       PRES   REMARKS
CARROLL *      SUNNY     63  45  51 NE5       29.67F
CHEROKEE *     CLOUDY    61  45  54 CALM      29.68S
DENISON *      PTSUNNY   63  43  48 CALM      29.69S
LE MARS *      MOSUNNY   66  43  42 CALM      29.67F
ORANGE CITY *  MOSUNNY   64  45  48 E3        29.68S
SHELDON *      PTSUNNY   63  43  48 NE3       29.67S
SIOUX CITY     CLOUDY    64  45  49 E6        29.66F
6HR MIN TEMP:  61; 6HR MAX TEMP:  68;

SPENCER        SUNNY     62  43  49 VRB5      29.69S
6HR MIN TEMP:  60; 6HR MAX TEMP:  64;

STORM LAKE *     N/A     63  43  48 E3        29.68S
$$

IAZ055>058-069>071-079>083-090>094-250100-
   SOUTHWEST IOWA

CITY           SKY/WX    TMP DP  RH WIND       PRES   REMARKS
ATLANTIC *     CLOUDY    63  46  55 E8        29.67S
AUDUBON *      SUNNY     61  48  63 CALM      29.68F
CLARINDA *     SUNNY     66  45  45 N6        29.69F
COUNCIL BLFS * PTSUNNY   64  46  52 CALM      29.67F
CRESTON *      SUNNY     61  46  59 N7        29.68F
HARLAN  *      PTSUNNY   64  45  48 CALM      29.70F
LAMONI         MOSUNNY   63  49  60 N6        29.66F
6HR MIN TEMP:  58; 6HR MAX TEMP:  64;

RED OAK *      CLOUDY    66  46  48 E6        29.67F
SHENANDOAH *   PTSUNNY   64  46  52 CALM      29.68F
$$

IAZ047>049-059>061-072>074-084-250100-
   CENTRAL IOWA

CITY           SKY/WX    TMP DP  RH WIND       PRES   REMARKS
AMES           MOSUNNY   60  49  66 NE6       29.67S
6HR MIN TEMP:  57; 6HR MAX TEMP:  64;

ANKENY *       SUNNY     63  48  59 NE9       29.67F
BOONE *        CLOUDY    61  48  63 NE8       29.66S
CHARITON *     PTSUNNY   61  50  67 N13       29.65F
DES MOINES     PTSUNNY   62  48  60 NE10      29.66S
6HR MIN TEMP:  58; 6HR MAX TEMP:  66;

GRINNELL*      MOSUNNY   61  49  64 N8        29.67S
KNOXVILLE *    PTSUNNY   61  48  63 N7        29.65S
MARSHALLTOWN   MOSUNNY   61  50  67 NE9       29.65S
6HR MIN TEMP:  57; 6HR MAX TEMP:  64;

NEWTON *       PTSUNNY   61  48  63 N10       29.65S
PELLA *        MOSUNNY   62  48  61 N7        29.66F
PERRY *        CLOUDY    63  48  58 NE5       29.67F
$$

IAZ004>006-015-016-023>025-035-036-250100-
   NORTH CENTRAL IOWA

CITY           SKY/WX    TMP DP  RH WIND       PRES   REMARKS
ALGONA *       CLOUDY    61  50  67 E8        29.69R
CLARION *      MOSUNNY   63  48  59 N6        29.67S
ESTHERVILLE    PTSUNNY   59  45  59 CALM      29.68F
6HR MIN TEMP:  56; 6HR MAX TEMP:  61;

FORT DODGE *   CLOUDY    61  46  59 N7        29.68S
MASON CITY     CLOUDY    60  47  61 NE7       29.69S
6HR MIN TEMP:  55; 6HR MAX TEMP:  64;

FOREST CITY *    N/A     61  37  41 N6        29.68S
WEBSTER CITY * CLOUDY    61  48  63 NE5       29.65S
IOWA FALLS *     N/A     62  50  66 N6        29.68S
$$

IAZ007>011-017>019-026>030-037>042-050>054-066-250100-
   NORTHEAST IOWA

CITY           SKY/WX    TMP DP  RH WIND       PRES   REMARKS
CEDAR RAPIDS   SUNNY     57  51  80 N13       29.64S
6HR MIN TEMP:  57; 6HR MAX TEMP:  61;

CHARLES CITY * CLOUDY    61  50  67 NE6       29.67S
CLINTON *      CLOUDY    59  53  80 N10       29.63R
DECORAH *      MOSUNNY   59  48  67 E10       29.66S
DUBUQUE        CLOUDY    56  50  80 N9        29.65R
6HR MIN TEMP:  56; 6HR MAX TEMP:  60;

MONTICELLO *   CLOUDY    59  50  72 N6        29.65R
OELWEIN *      CLOUDY    59  52  77 NE12      29.67S
WATERLOO       PTSUNNY   59  50  72 NE8       29.65F
6HR MIN TEMP:  56; 6HR MAX TEMP:  62;

$$

IAZ064-065-067-068-078-250100-
   EAST CENTRAL IOWA

CITY           SKY/WX    TMP DP  RH WIND       PRES   REMARKS
DAVENPORT      MOSUNNY   61  51  70 N12       29.63R
6HR MIN TEMP:  57; 6HR MAX TEMP:  62; 6HR PCP: TRACE;

IOWA CITY      CLOUDY    62  49  62 N14       29.65R
6HR MIN TEMP:  59; 6HR MAX TEMP:  65;

MT. PLEASANT * PTSUNNY   62  49  62 N9        29.62S
MUSCATINE *    CLOUDY    61  52  72 N6        29.63R
QUAD CITIES    CLOUDY    63  51  65 N8        29.61R
6HR MIN TEMP:  60; 6HR MAX TEMP:  64; 6HR PCP: TRACE;

$$

IAZ062-063-075>077-085>089-095>099-250100-
   SOUTHEAST IOWA

CITY           SKY/WX    TMP DP  RH WIND       PRES   REMARKS
BURLINGTON     PTSUNNY   63  51  65 N14       29.60R
6HR MIN TEMP:  57; 6HR MAX TEMP:  66; 6HR PCP:  0.09;

FAIRFIELD *    SUNNY     61  50  67 N14       29.63S
FORT MADISON * SUNNY     63  52  67 N12       29.62R
KEOKUK *       SUNNY     63  50  63 NW9G16    29.60S
OSKALOOSA *    PTSUNNY   62  47  59 N10       29.65S
OTTUMWA        PTSUNNY   61  48  62 N13       29.64S
6HR MIN TEMP:  61; 6HR MAX TEMP:  66;

WASHINGTON *   CLOUDY    61  50  67 N14       29.64S
$$

ABBREVIATIONS USED IN REMARKS
   TC - TEMPERATURES IN CELSIUS
  WCI - WIND CHILL INDEX
   HX - HEAT INDEX
  VSB - VISIBILITY
$$





USA.gov is the U.S. government's official web portal to all federal, state and local government web resources and services.